| time (UTC) | temp F | wind direction | speed MPH | gust MPH | rain 1hr in | rain 24hr in | rain mn in | humidity % | barometer mb |
| 20260505034502 | 53 | 184 | 6.0 | 11.0 | 0.00 | 0.00 | 0.00 | 92 | 1011.1 |
| 20260505033002 | 53 | 210 | 5.0 | 12.0 | 0.00 | 0.00 | 0.00 | 92 | 1011.1 |
| 20260505031502 | 53 | 248 | 6.0 | 14.0 | 0.00 | 0.00 | 0.00 | 92 | 1011.3 |
| 20260505030100 | 53 | 221 | 7.0 | 12.0 | 0.00 | 0.00 | 0.00 | 91 | 1011.2 |
| 20260505024608 | 54 | 238 | 7.0 | 14.0 | 0.00 | 0.00 | 0.00 | 90 | 1011.3 |
| 20260505023104 | 54 | 198 | 6.0 | 16.0 | 0.00 | 0.00 | 0.00 | 90 | 1011.3 |
| 20260505021559 | 55 | 191 | 8.0 | 17.0 | 0.00 | 0.00 | 0.00 | 89 | 1011.5 |
| 20260505020058 | 55 | 248 | 10.0 | 17.0 | 0.00 | 0.00 | 0.00 | 87 | 1011.5 |
| 20260505014558 | 55 | 263 | 7.0 | 17.0 | 0.00 | 0.00 | 0.00 | 86 | 1011.2 |
| 20260505013125 | 56 | 203 | 7.0 | 17.0 | 0.00 | 0.00 | 0.00 | 85 | 1011.2 |
| 20260505011618 | 56 | 238 | 8.0 | 15.0 | 0.00 | 0.00 | 0.00 | 85 | 1011.1 |
| 20260505010110 | 55 | 222 | 5.0 | 12.0 | 0.00 | 0.00 | 0.00 | 87 | 1010.9 |
| 20260505004556 | 55 | 238 | 5.0 | 13.0 | 0.00 | 0.00 | 0.00 | 87 | 1010.8 |
| 20260505003102 | 54 | 236 | 6.0 | 16.0 | 0.00 | 0.00 | 0.00 | 88 | 1010.6 |
| 20260505001555 | 54 | 225 | 7.0 | 16.0 | 0.00 | 0.00 | 0.00 | 89 | 1010.5 |
| 20260505000105 | 54 | 240 | 7.0 | 15.0 | 0.00 | 0.00 | 0.00 | 89 | 1010.4 |
| 20260504234554 | 54 | 194 | 8.0 | 17.0 | 0.00 | 0.00 | 0.00 | 89 | 1010.3 |
| 20260504233101 | 54 | 214 | 7.0 | 15.0 | 0.00 | 0.00 | 0.00 | 87 | 1010.3 |
| 20260504231553 | 55 | 232 | 9.0 | 17.0 | 0.00 | 0.00 | 0.00 | 86 | 1010.2 |
| 20260504230059 | 55 | 148 | 9.0 | 19.0 | 0.00 | 0.00 | 0.00 | 86 | 1010.1 |
| 20260504224551 | 55 | 198 | 9.0 | 17.0 | 0.00 | 0.00 | 0.00 | 85 | 1010.1 |
| 20260504223058 | 56 | 200 | 9.0 | 17.0 | 0.00 | 0.00 | 0.00 | 85 | 1010.1 |
| 20260504221550 | 56 | 230 | 9.0 | 20.0 | 0.00 | 0.00 | 0.00 | 84 | 1010.0 |
| 20260504220049 | 56 | 212 | 13.0 | 20.0 | 0.00 | 0.00 | 0.00 | 85 | 1010.0 |
| 20260504214559 | 56 | 266 | 11.0 | 25.0 | 0.00 | 0.00 | 0.00 | 84 | 1009.9 |
| 20260504213056 | 56 | 219 | 9.0 | 19.0 | 0.00 | 0.00 | 0.00 | 83 | 1010.0 |
| 20260504211552 | 56 | 206 | 12.0 | 21.0 | 0.00 | 0.00 | 0.00 | 83 | 1010.0 |
| 20260504210146 | 56 | 194 | 11.0 | 19.0 | 0.00 | 0.00 | 0.00 | 83 | 1010.1 |
| 20260504204545 | 56 | 182 | 14.0 | 21.0 | 0.00 | 0.00 | 0.00 | 83 | 1010.1 |
| 20260504203043 | 56 | 197 | 11.0 | 20.0 | 0.00 | 0.00 | 0.00 | 84 | 1010.2 |
| 20260504201557 | 56 | 204 | 11.0 | 20.0 | 0.00 | 0.00 | 0.00 | 83 | 1010.3 |
| 20260504200042 | 56 | 243 | 13.0 | 22.0 | 0.00 | 0.00 | 0.00 | 83 | 1010.4 |
| 20260504194546 | 56 | 219 | 13.0 | 20.0 | 0.00 | 0.00 | 0.00 | 82 | 1010.5 |
| 20260504193037 | 57 | 233 | 12.0 | 21.0 | 0.00 | 0.00 | 0.00 | 81 | 1010.6 |
| 20260504191539 | 57 | 160 | 11.0 | 21.0 | 0.00 | 0.00 | 0.00 | 80 | 1010.8 |
| 20260504190030 | 57 | 157 | 12.0 | 20.0 | 0.00 | 0.00 | 0.00 | 80 | 1011.0 |
| 20260504184533 | 58 | 192 | 13.0 | 20.0 | 0.00 | 0.00 | 0.00 | 78 | 1011.3 |
| 20260504183027 | 58 | 218 | 13.0 | 20.0 | 0.00 | 0.00 | 0.00 | 78 | 1011.4 |
| 20260504181531 | 58 | 177 | 10.0 | 18.0 | 0.00 | 0.00 | 0.00 | 79 | 1011.4 |
| 20260504180024 | 57 | 203 | 12.0 | 23.0 | 0.00 | 0.00 | 0.00 | 79 | 1011.8 |
| 20260504174522 | 57 | 179 | 11.0 | 20.0 | 0.00 | 0.00 | 0.00 | 80 | 1012.0 |
| 20260504173021 | 57 | 205 | 11.0 | 20.0 | 0.00 | 0.00 | 0.00 | 80 | 1012.0 |
| 20260504171519 | 57 | 232 | 12.0 | 20.0 | 0.00 | 0.00 | 0.00 | 81 | 1012.2 |
| 20260504140111 | 56 | 168 | 9.0 | 18.0 | 0.00 | 0.00 | 0.00 | 79 | 1013.7 |
| 20260504081519 | 52 | 266 | 10.0 | 15.0 | 0.00 | 0.00 | 0.00 | 75 | 1014.6 |
| 20260504044554 | 52 | 250 | 7.0 | 12.0 | 0.00 | 0.00 | 0.00 | 68 | 1013.7 |
| 20260504043050 | 52 | 229 | 7.0 | 14.0 | 0.00 | 0.00 | 0.00 | 63 | 1013.6 |
| 20260504041546 | 52 | 235 | 9.0 | 16.0 | 0.00 | 0.00 | 0.00 | 60 | 1013.5 |
| 20260504040046 | 52 | 256 | 8.0 | 16.0 | 0.00 | 0.00 | 0.00 | 61 | 1013.4 |